World > North America > United States > Iowa > Galbraith  

Galbraith, IA Hourly Weather Updates

Feedback E-mail the Weather

Quick Clicks

Galbraith, IA Weather Maps

°F °C°F °C
Galbraith Weather Map
UTC Time: 4/21/2024, 18:10
Your Time:

Galbraith, IA Regional Weather

Expires:202404211900;;140422
ASUS43 KDMX 211806
RWRIA 

WEATHER ROUNDUP FOR IOWA
NATIONAL WEATHER SERVICE DES MOINES IA
100 PM CDT SUN APR 21 2024

NOTE: "FAIR" INDICATES FEW OR NO CLOUDS BELOW 12,000 FEET WITH NO
SIGNIFICANT WEATHER AND/OR OBSTRUCTIONS TO VISIBILITY.

* - THESE STATIONS ARE NOT NWS STATIONS...THUS NOT UNDER NWS
QUALITY CONTROL.  THEY ALSO DO NOT REPORT WEATHER SUCH 
AS PRECIPITATION OR FOG.  


IAZ004>006-015-016-023>025-035-036-211900-
   NORTH CENTRAL IOWA
  
CITY           SKY/WX    TMP DP  RH WIND       PRES   REMARKS
ALGONA *       SUNNY     55  19  24 NW8G23    30.23F TC  13           
CLARION *      SUNNY     55  23  28 W10G21    30.24F TC  13           
ESTHERVILLE    SUNNY     56  23  27 NW14G23   30.23F TC  13           
6HR MIN TEMP:  31; 6HR MAX TEMP:  56;                                

FORT DODGE *   SUNNY     57  23  26 W9G23     30.26F TC  14           
MASON CITY     SUNNY     54  24  31 W9G29     30.23F TC  12           
6HR MIN TEMP:  27; 6HR MAX TEMP:  55;                                

FOREST CITY *  SUNNY     54  25  32 W10G20    30.23F TC  12           
WEBSTER CITY * SUNNY     57  19  23 NW18      30.24F TC  14           
IOWA FALLS *   SUNNY     56  18  22 W10G20    30.26F TC  13           
$$


SKY/WX - Weather  TMP - Temperature  DP - Dew Point  RH - Humidity
WIND - Wind Direction/Speed PRES - Barometric Pressure VSB - Visibility
WCI - Wind Chill Index E13G22 Wind - East Wind 13 mph/Gusts of 22 mph

Trending Headlines

Trending Entertainment Headlines

Galbraith Radar Loop

Use the map search tool if you want to place a location marker on the radar map...

Galbraith Quick Facts

National Two Day Weather Forecast


E-mail the Galbraith Weather Forecast

Voice your opinion or tell us about page issues...